Regional Weather Roundup
Issued by NWS Sioux Falls, SD

Home | Current Version | Previous Version | Graphics & Text | Print | Product List | Glossary Off
Versions: 1 2 3 4 5 6 7 8 9 10 11 12 13 14 15 16 17 18 19 20 21 22 23 24 25 26 27 28 29 30 31 32 33 34 35 36 37 38 39 40 41 42 43 44 45 46 47 48 49 50

000
ASUS43 KFSD 240510
RWRFSD

WEATHER ROUNDUP FOR SE SOUTH DAKOTA/SW MINNESOTA/NW IOWA
NATIONAL WEATHER SERVICE SIOUX FALLS SD
1100 PM CST MON JAN 23 2017

NOTE: "FAIR" INDICATES FEW OR NO CLOUDS BELOW 12,000 FEET WITH NO
SIGNIFICANT WEATHER AND OR OBSTRUCTIONS TO VISIBILITY.


SDZ038>040-050-052>070-240600-
SOUTHEAST SOUTH DAKOTA

CITY           SKY/WX    TMP DP  RH WIND       PRES   REMARKS
BROOKINGS      CLOUDY    30  27  88 S8        29.81R WCI  22
CHAMBERLAIN    CLOUDY    32  31  95 E6        29.76S WCI  26
HURON          CLOUDY    31  28  89 SE8       29.81R WCI  23
MADISON        CLOUDY    28  28 100 SE12        N/A  WCI  18
MITCHELL       CLOUDY    32  29  88 SE10      29.80F WCI  24
SIOUX FALLS    CLOUDY    32  30  92 SE8       29.81F WCI  25
WINNER         CLOUDY    33  29  85 E6        29.72S WCI  28
YANKTON        CLOUDY    30  27  86 E7        29.80S WCI  23
$$

MNZ071-072-080-081-089-090-097-098-240600-
SOUTHWEST MINNESOTA

CITY           SKY/WX    TMP DP  RH WIND       PRES   REMARKS
FAIRMONT       CLOUDY    31  29  92 CALM      29.86S
JACKSON        CLOUDY    30  28  93 S3        29.84S
LUVERNE        CLOUDY    30  28  93 SE6       29.83S WCI  24
MARSHALL       CLOUDY    31  28  89 E6        29.83F WCI  25
MONTEVIDEO     CLOUDY    30  30 100 CALM      29.86S
PIPESTONE      CLOUDY    30  28  93 S8        29.80F WCI  23
REDWOOD FALLS  CLOUDY    32  26  78 CALM      29.85R
TRACY          CLOUDY    32  29  90 E5        29.83F WCI  27
WINDOM         CLOUDY    30  28  93 CALM      29.83F
WORTHINGTON    CLOUDY    30  28  92 S7        29.84R WCI  23
$$

IAZ001>003-012>014-020>022-031-032-NEZ013-014-SDZ071-240600-
NORTHWEST IOWA

CITY           SKY/WX    TMP DP  RH WIND       PRES   REMARKS
CHEROKEE       CLOUDY    32  31  96 SE3       29.85S
DENISON        CLOUDY    32  28  86 SE5       29.83S WCI  27
ESTHERVILLE    CLOUDY    31  30  96 CALM      29.85R
LE MARS        CLOUDY    32  30  93 SE5       29.85S WCI  27
ORANGE CITY    CLOUDY    30  30 100 SE6       29.83F WCI  24
SHELDON        CLOUDY    32  32 100 SE5       29.82F WCI  27
SIOUX CITY     CLOUDY    33  30  88 E6        29.84R WCI  28
SPENCER        CLOUDY    32  30  92 S3        29.85S
STORM LAKE     CLOUDY    32  30  93 SE3       29.84S
$$

ABBREVIATIONS USED IN REMARKS
   TC - TEMPERATURE IN CELSIUS
  WCI - WIND CHILL INDEX
   HX - HEAT INDEX
  VSB - VISIBILITY





USA.gov is the U.S. government's official web portal to all federal, state and local government web resources and services.